Weather History for Saranac Lake, NY

Change the Weather History Date:

Thursday, January 31, 2013

  Actual Average Record
Temperature  
Mean Temperature 32 °F 13 °F  
Max Temperature 50 °F 26 °F 54 °F (1988)
Min Temperature 14 °F 1 °F -25 °F (1999)
Degree Days  
Heating Degree Days 33 52  
Month to date heating degree days 1535 1603  
Since 1 July heating degree days 4909 5302  
Moisture  
Dew Point 22 °F    
Average Humidity 77    
Maximum Humidity 100    
Minimum Humidity 54    
Precipitation  
Precipitation 0.43 in 0.08 in 0.71 in (1969)
Month to date precipitation 1.23 2.13  
Year to date precipitation 1.23 2.13  
Sea Level Pressure  
Sea Level Pressure 29.12 in    
Wind  
Wind Speed 16 mph (WSW)    
Max Wind Speed 30 mph    
Max Gust Speed 51 mph    
Visibility 4 miles    
Events Fog , Rain , Snow    
T = Trace of Precipitation, MM = Missing Value Source: NWS Daily Summary

Daily Weather History Graph

Daily Weather History Graph

Search for Another Location

Airport:

Trip Planner

Search our weather history database for the weather conditions in past years. The results will help you decide how hot, cold, wet, or windy it might be!

Date:

Astronomy

Jan. 31, 2013 Rise Set
Actual Time 7:15 AM EST 5:05 PM EST
Civil Twilight 6:45 AM EST 5:36 PM EST
Nautical Twilight 6:10 AM EST 6:11 PM EST
Astronomical Twilight 5:36 AM EST 6:45 PM EST
Moon 10:19 PM EST (1/31) 9:01 AM EST (1/31)
Length of Visible Light 10h 51m
Length of Day
9h 49m
Waning Gibbous, 80% of the Moon is Illuminated
Jan 31
Waning Gibbous
Feb 3
Last Quarter
Feb 10
New
Feb 17
First Quarter
Feb 25
Full

Hourly Weather History & Observations

Time (EST) Temp. Windchill Dew Point Humidity Pressure Visibility Wind Dir Wind Speed Gust Speed Precip Events Conditions
12:51 AM 50.0 °F - 48.0 °F 93% 29.12 in 10.0 mi South 6.9 mph - 0.09 in Rain Light Rain
1:51 AM 50.0 °F - 46.9 °F 89% 29.05 in 8.0 mi South 9.2 mph - 0.04 in Rain Light Rain
2:51 AM 48.9 °F - 48.0 °F 97% 28.99 in 5.0 mi South 6.9 mph - 0.07 in Rain Rain
3:51 AM 48.9 °F - 48.0 °F 97% 28.90 in 8.0 mi South 5.8 mph - 0.10 in Rain Light Rain
4:51 AM 48.9 °F - 46.9 °F 93% 28.84 in 7.0 mi South 13.8 mph 20.7 mph 0.07 in Rain Light Rain
5:26 AM 44.6 °F 36.9 °F 42.8 °F 93% 28.90 in 8.0 mi WSW 18.4 mph 35.7 mph 0.02 in Rain Light Rain
5:43 AM 42.8 °F 34.8 °F 39.2 °F 87% 28.90 in 9.0 mi WSW 17.3 mph 24.2 mph 0.04 in Rain Light Rain
5:51 AM 39.9 °F 30.8 °F 37.0 °F 89% 28.92 in 10.0 mi WSW 18.4 mph 35.7 mph 0.04 in Rain Light Rain
6:03 AM 39.2 °F 32.5 °F 37.4 °F 93% 28.88 in 10.0 mi WSW 10.4 mph 19.6 mph 0.00 in Rain Light Rain
6:51 AM 36.0 °F 26.0 °F 34.0 °F 93% 28.94 in 8.0 mi SW 17.3 mph 25.3 mph 0.03 in Rain Light Rain
7:25 AM 33.8 °F 21.9 °F 30.2 °F 87% 28.97 in 2.5 mi SW 21.9 mph 33.4 mph 0.00 in Snow Light Snow
7:34 AM 33.8 °F 23.9 °F 30.2 °F 87% 28.96 in 1.0 mi SW 15.0 mph 28.8 mph 0.00 in Snow Light Snow
7:41 AM 33.8 °F 24.3 °F 30.2 °F 87% 28.97 in 1.2 mi WSW 13.8 mph 24.2 mph 0.00 in Snow Light Snow
7:51 AM 33.1 °F 21.9 °F 30.9 °F 92% 28.98 in 1.0 mi WSW 18.4 mph 29.9 mph 0.00 in Snow Light Snow
7:59 AM 32.0 °F 22.1 °F 30.2 °F 93% 28.97 in 0.5 mi WSW 13.8 mph 34.5 mph 0.00 in Fog , Snow Snow
8:13 AM 32.0 °F 20.8 °F 30.2 °F 93% 28.98 in 1.8 mi SW 17.3 mph 28.8 mph 0.00 in Snow Light Snow
8:20 AM 33.8 °F 24.3 °F 30.2 °F 87% 28.98 in 2.0 mi WSW 13.8 mph 28.8 mph 0.00 in Snow Light Snow
8:25 AM 32.0 °F 20.8 °F 30.2 °F 93% 28.98 in 1.0 mi WSW 17.3 mph 24.2 mph 0.00 in Snow Light Snow
8:42 AM 32.0 °F 18.9 °F 28.4 °F 87% 28.99 in 1.2 mi West 24.2 mph 44.9 mph 0.01 in Snow Light Snow
8:44 AM 30.2 °F 17.4 °F 28.4 °F 93% 28.99 in 3.0 mi WSW 20.7 mph 44.9 mph 0.01 in   Overcast
8:51 AM 30.9 °F 18.1 °F 28.0 °F 89% 29.01 in 4.0 mi West 21.9 mph 41.4 mph 0.01 in   Overcast
9:00 AM 30.2 °F 16.8 °F 26.6 °F 86% 29.00 in 5.0 mi WSW 23.0 mph 50.6 mph 0.00 in   Overcast
9:51 AM 28.9 °F 15.1 °F 24.1 °F 82% 29.06 in 9.0 mi WSW 23.0 mph 33.4 mph 0.00 in Snow Light Snow
10:22 AM 28.4 °F 15.1 °F 19.4 °F 69% 29.07 in 10.0 mi WSW 20.7 mph 44.9 mph 0.00 in   Overcast
10:51 AM 27.0 °F 14.3 °F 19.9 °F 75% 29.11 in 10.0 mi WSW 17.3 mph 35.7 mph 0.00 in   Overcast
11:21 AM 26.6 °F 13.1 °F 19.4 °F 74% 29.08 in 9.0 mi WSW 19.6 mph 46.0 mph N/A   Overcast
11:48 AM 26.6 °F 12.4 °F 19.4 °F 74% 29.09 in 5.0 mi West 21.9 mph 43.7 mph 0.00 in Snow Light Snow
11:51 AM 26.1 °F 10.4 °F 19.0 °F 75% 29.12 in 5.0 mi WSW 26.5 mph 43.7 mph 0.00 in Snow Light Snow
12:06 PM 26.6 °F 10.8 °F 17.6 °F 69% 29.10 in 1.8 mi WSW 27.6 mph 39.1 mph 0.00 in Snow Light Snow
12:14 PM 24.8 °F 11.5 °F 19.4 °F 80% 29.11 in 0.2 mi WSW 17.3 mph 40.3 mph 0.00 in Snow Heavy Snow
12:26 PM 24.8 °F 9.6 °F 19.4 °F 80% 29.11 in 1.0 mi SW 23.0 mph 39.1 mph 0.00 in Snow Light Snow
12:35 PM 26.6 °F 13.1 °F 19.4 °F 74% 29.11 in 2.0 mi WSW 19.6 mph 39.1 mph 0.00 in Snow Light Snow
12:47 PM 24.8 °F 13.4 °F 19.4 °F 80% 29.12 in 0.8 mi West 12.7 mph 33.4 mph 0.00 in Snow Light Snow
12:51 PM 24.1 °F 11.0 °F 21.0 °F 88% 29.15 in 0.2 mi WSW 16.1 mph 26.5 mph 0.00 in Fog , Snow Heavy Snow
1:11 PM 24.8 °F 13.4 °F 21.2 °F 86% 29.13 in 0.2 mi West 12.7 mph 20.7 mph 0.00 in Fog , Snow Heavy Snow
1:29 PM 24.8 °F 11.5 °F 19.4 °F 80% 29.13 in 0.5 mi West 17.3 mph 33.4 mph 0.00 in Fog , Snow Snow
1:36 PM 23.0 °F 6.0 °F 19.4 °F 86% 29.13 in 0.2 mi West 27.6 mph 44.9 mph 0.00 in Fog , Snow Snow
1:41 PM 23.0 °F 8.0 °F 17.6 °F 80% 29.13 in 0.5 mi WSW 20.7 mph 44.9 mph 0.00 in Snow Snow
1:47 PM 24.8 °F 10.3 °F 17.6 °F 74% 29.14 in 1.2 mi WSW 20.7 mph 39.1 mph 0.00 in Snow Light Snow
1:51 PM 24.1 °F 11.0 °F 17.1 °F 75% 29.17 in 2.5 mi WSW 16.1 mph 39.1 mph 0.00 in   Overcast
2:15 PM 24.8 °F 9.6 °F 15.8 °F 69% 29.14 in 1.2 mi WSW 23.0 mph 42.6 mph 0.00 in Snow Light Snow
2:24 PM 24.8 °F 9.6 °F 15.8 °F 69% 29.15 in 1.8 mi WSW 23.0 mph 42.6 mph 0.00 in   Overcast
2:36 PM 24.8 °F 10.0 °F 14.0 °F 64% 29.16 in 2.5 mi WSW 21.9 mph 39.1 mph 0.00 in   Overcast
2:51 PM 24.1 °F 9.8 °F 14.0 °F 65% 29.20 in 2.0 mi WSW 19.6 mph 43.7 mph 0.00 in   Haze
3:10 PM 23.0 °F 7.2 °F 12.2 °F 63% 29.19 in 1.5 mi WSW 23.0 mph 40.3 mph 0.00 in   Overcast
3:18 PM 23.0 °F 8.7 °F 12.2 °F 63% 29.19 in 3.0 mi WSW 18.4 mph 42.6 mph 0.00 in   Haze
3:33 PM 23.0 °F 6.3 °F 10.4 °F 59% 29.21 in 2.5 mi WSW 26.5 mph 44.9 mph 0.00 in   Haze
3:40 PM 23.0 °F 10.1 °F 10.4 °F 59% 29.21 in 5.0 mi WSW 15.0 mph 44.9 mph 0.00 in   Haze
3:51 PM 23.0 °F 8.7 °F 10.9 °F 60% 29.25 in 9.0 mi WSW 18.4 mph 39.1 mph 0.00 in   Overcast
4:16 PM 21.2 °F 5.6 °F 12.2 °F 68% 29.23 in 1.8 mi WSW 20.7 mph 34.5 mph 0.00 in Snow Light Snow
4:26 PM 21.2 °F 6.0 °F 10.4 °F 63% 29.24 in 3.0 mi WSW 19.6 mph 41.4 mph 0.00 in Snow Light Snow
4:51 PM 21.9 °F 7.8 °F 10.0 °F 60% 29.28 in 8.0 mi WSW 17.3 mph 28.8 mph 0.00 in Snow Light Snow
5:51 PM 19.9 °F 4.3 °F 8.1 °F 60% 29.34 in 10.0 mi WSW 19.6 mph 32.2 mph 0.00 in   Overcast
6:51 PM 19.0 °F 5.0 °F 7.0 °F 59% 29.39 in 10.0 mi West 15.0 mph 36.8 mph N/A   Overcast
7:51 PM 18.0 °F 2.6 °F 3.9 °F 54% 29.42 in 10.0 mi West 17.3 mph 41.4 mph N/A   Overcast
8:51 PM 17.1 °F 2.0 °F 3.0 °F 54% 29.45 in 10.0 mi West 16.1 mph 34.5 mph N/A   Overcast
9:51 PM 16.0 °F 3.6 °F 5.0 °F 62% 29.47 in 8.0 mi West 10.4 mph 26.5 mph N/A   Overcast
10:51 PM 14.0 °F 1.2 °F 6.1 °F 71% 29.49 in 7.0 mi WSW 10.4 mph 16.1 mph N/A   Overcast
11:51 PM 14.0 °F -0.2 °F 7.0 °F 74% 29.51 in 5.0 mi WSW 12.7 mph 20.7 mph N/A   Haze